Time,TemperatureF,DewpointF,PressureIn,WindDirection,WindDirectionDegrees,WindSpeedMPH,WindSpeedGustMPH,Humidity,HourlyPrecipIn,Conditions,Clouds,dailyrainin,SoftwareType,DateUTC
2013-08-09 00:02:00,67.0,65.0,30.05,East,91,0.0,0.0,93,0.00,,,0.01,,2013-08-09 05:02:00,
2013-08-09 00:11:00,67.0,65.0,30.05,East,91,0.0,0.0,94,0.00,,,0.01,,2013-08-09 05:11:00,
2013-08-09 00:21:00,67.0,65.0,30.05,East,92,0.0,0.0,94,0.00,,,0.01,,2013-08-09 05:21:00,
2013-08-09 00:32:00,67.0,65.0,30.05,East,91,0.0,0.0,94,0.00,,,0.01,,2013-08-09 05:32:00,
2013-08-09 00:43:00,67.0,65.0,30.05,East,92,0.0,0.0,94,0.00,,,0.01,,2013-08-09 05:43:00,
2013-08-09 00:52:00,67.0,66.0,30.06,ESE,114,0.0,0.0,95,0.00,,,0.01,,2013-08-09 05:52:00,
2013-08-09 01:01:00,66.0,65.0,30.07,ESE,114,0.0,0.0,95,0.00,,,0.01,,2013-08-09 06:01:00,
2013-08-09 01:11:00,66.0,65.0,30.06,ESE,114,0.0,0.0,95,0.00,,,0.01,,2013-08-09 06:11:00,
2013-08-09 01:21:00,66.0,65.0,30.06,ESE,114,0.0,0.0,95,0.00,,,0.01,,2013-08-09 06:21:00,
2013-08-09 01:32:00,66.0,65.0,30.06,ESE,114,0.0,0.0,95,0.00,,,0.01,,2013-08-09 06:32:00,
2013-08-09 01:43:00,66.0,65.0,30.05,ESE,114,0.0,0.0,95,0.00,,,0.01,,2013-08-09 06:43:00,
2013-08-09 01:52:00,66.0,65.0,30.05,ESE,114,0.0,0.0,96,0.00,,,0.01,,2013-08-09 06:52:00,
2013-08-09 02:01:00,66.0,65.0,30.05,ESE,114,0.0,0.0,96,0.00,,,0.01,,2013-08-09 07:01:00,
2013-08-09 02:12:00,66.0,65.0,30.05,ESE,114,0.0,0.0,96,0.00,,,0.01,,2013-08-09 07:12:00,
2013-08-09 02:22:00,66.0,65.0,30.05,ESE,114,0.0,0.0,96,0.00,,,0.01,,2013-08-09 07:22:00,
2013-08-09 02:33:00,66.0,65.0,30.05,ESE,122,0.0,0.0,96,0.00,,,0.01,,2013-08-09 07:33:00,
2013-08-09 02:43:00,66.0,65.0,30.05,ESE,122,0.0,0.0,96,0.00,,,0.01,,2013-08-09 07:43:00,
2013-08-09 02:52:00,66.0,65.0,30.05,ESE,122,0.0,0.0,96,0.00,,,0.01,,2013-08-09 07:52:00,
2013-08-09 03:02:00,66.0,65.0,30.05,ESE,121,0.0,0.0,96,0.00,,,0.01,,2013-08-09 08:02:00,
2013-08-09 03:12:00,66.0,65.0,30.05,ESE,121,0.0,0.0,96,0.00,,,0.01,,2013-08-09 08:12:00,
2013-08-09 03:22:00,66.0,65.0,30.06,ESE,121,0.0,0.0,96,0.00,,,0.01,,2013-08-09 08:22:00,
2013-08-09 03:32:00,66.0,65.0,30.06,ESE,121,0.0,0.0,96,0.00,,,0.01,,2013-08-09 08:32:00,
2013-08-09 03:43:00,66.0,65.0,30.05,ESE,121,0.0,0.0,96,0.00,,,0.01,,2013-08-09 08:43:00,
2013-08-09 03:53:00,66.0,65.0,30.06,ESE,121,0.0,0.0,96,0.00,,,0.01,,2013-08-09 08:53:00,
2013-08-09 04:02:00,66.0,65.0,30.06,ESE,121,0.0,1.0,96,0.00,,,0.01,,2013-08-09 09:02:00,
2013-08-09 04:12:00,66.0,65.0,30.06,ESE,121,0.0,0.0,96,0.00,,,0.01,,2013-08-09 09:12:00,
2013-08-09 04:22:00,66.0,65.0,30.06,ESE,121,0.0,0.0,96,0.00,,,0.01,,2013-08-09 09:22:00,
2013-08-09 04:32:00,66.0,65.0,30.06,ESE,121,0.0,0.0,96,0.00,,,0.01,,2013-08-09 09:32:00,
2013-08-09 04:43:00,66.0,65.0,30.06,ESE,121,0.0,0.0,96,0.00,,,0.01,,2013-08-09 09:43:00,
2013-08-09 04:52:00,66.0,65.0,30.05,ESE,121,0.0,1.0,96,0.00,,,0.01,,2013-08-09 09:52:00,
2013-08-09 05:01:00,66.0,65.0,30.05,ESE,121,0.0,0.0,96,0.00,,,0.01,,2013-08-09 10:01:00,
2013-08-09 05:12:00,66.0,65.0,30.05,ESE,121,0.0,0.0,96,0.00,,,0.01,,2013-08-09 10:12:00,
2013-08-09 05:22:00,66.0,65.0,30.05,ESE,121,0.0,2.0,96,0.00,,,0.01,,2013-08-09 10:22:00,
2013-08-09 05:32:00,66.0,65.0,30.06,ESE,121,0.0,1.0,95,0.00,,,0.01,,2013-08-09 10:32:00,
2013-08-09 05:43:00,66.0,65.0,30.06,North,355,0.0,2.0,95,0.00,,,0.01,,2013-08-09 10:43:00,
2013-08-09 05:53:00,66.0,65.0,30.06,North,360,0.0,3.0,95,0.00,,,0.01,,2013-08-09 10:53:00,
2013-08-09 06:01:00,66.0,65.0,30.06,North,360,0.0,1.0,95,0.00,,,0.01,,2013-08-09 11:01:00,
2013-08-09 06:11:00,66.0,65.0,30.06,North,360,0.0,0.0,95,0.00,,,0.01,,2013-08-09 11:11:00,
2013-08-09 06:22:00,66.0,65.0,30.06,North,360,0.0,0.0,95,0.00,,,0.01,,2013-08-09 11:22:00,
2013-08-09 06:33:00,65.0,64.0,30.06,North,360,0.0,0.0,95,0.00,,,0.01,,2013-08-09 11:33:00,
2013-08-09 06:42:00,65.0,64.0,30.06,North,360,0.0,0.0,96,0.00,,,0.01,,2013-08-09 11:42:00,
2013-08-09 06:53:00,65.0,64.0,30.06,North,360,0.0,0.0,96,0.00,,,0.01,,2013-08-09 11:53:00,
2013-08-09 07:02:00,65.0,64.0,30.06,North,360,0.0,0.0,96,0.00,,,0.01,,2013-08-09 12:02:00,
2013-08-09 07:12:00,65.0,64.0,30.06,North,360,0.0,0.0,96,0.00,,,0.01,,2013-08-09 12:12:00,
2013-08-09 07:22:00,65.0,64.0,30.06,North,360,0.0,2.0,96,0.00,,,0.01,,2013-08-09 12:22:00,
2013-08-09 07:32:00,65.0,64.0,30.06,North,360,1.0,2.0,97,0.00,,,0.01,,2013-08-09 12:32:00,
2013-08-09 07:43:00,65.0,64.0,30.07,North,355,0.0,1.0,97,0.00,,,0.01,,2013-08-09 12:43:00,
2013-08-09 07:52:00,65.0,64.0,30.07,North,355,0.0,0.0,97,0.00,,,0.01,,2013-08-09 12:52:00,
2013-08-09 08:01:00,65.0,64.0,30.07,North,355,0.0,0.0,97,0.00,,,0.01,,2013-08-09 13:01:00,
2013-08-09 08:12:00,66.0,65.0,30.07,NNW,334,1.0,3.0,96,0.00,,,0.01,,2013-08-09 13:12:00,
2013-08-09 08:23:00,66.0,65.0,30.08,North,5,1.0,3.0,96,0.00,,,0.01,,2013-08-09 13:23:00,
2013-08-09 08:32:00,67.0,65.0,30.08,North,349,2.0,5.0,94,0.00,,,0.01,,2013-08-09 13:32:00,
2013-08-09 08:43:00,69.0,67.0,30.08,North,355,0.0,4.0,93,0.00,,,0.01,,2013-08-09 13:43:00,
2013-08-09 08:52:00,70.0,67.0,30.08,ENE,60,3.0,6.0,90,0.00,,,0.01,,2013-08-09 13:52:00,
2013-08-09 09:02:00,70.0,67.0,30.09,North,355,6.0,9.0,90,0.00,,,0.01,,2013-08-09 14:02:00,
2013-08-09 09:11:00,70.0,67.0,30.09,NNE,32,1.0,7.0,90,0.00,,,0.01,,2013-08-09 14:11:00,
2013-08-09 09:22:00,70.0,67.0,30.09,NE,44,2.0,8.0,90,0.00,,,0.01,,2013-08-09 14:22:00,
2013-08-09 09:33:00,71.0,68.0,30.09,NNE,26,1.0,6.0,90,0.00,,,0.01,,2013-08-09 14:33:00,
2013-08-09 09:43:00,71.0,67.0,30.09,ENE,72,3.0,7.0,88,0.00,,,0.01,,2013-08-09 14:43:00,
2013-08-09 09:53:00,72.0,68.0,30.09,ENE,74,3.0,7.0,87,0.00,,,0.01,,2013-08-09 14:53:00,
2013-08-09 10:01:00,72.0,68.0,30.09,ENE,63,2.0,7.0,87,0.00,,,0.01,,2013-08-09 15:01:00,
2013-08-09 10:11:00,72.0,67.0,30.10,NE,54,4.0,8.0,85,0.00,,,0.01,,2013-08-09 15:11:00,
2013-08-09 10:22:00,73.0,69.0,30.10,NNE,31,2.0,6.0,86,0.00,,,0.01,,2013-08-09 15:22:00,
2013-08-09 10:33:00,73.0,68.0,30.10,NNE,17,4.0,8.0,84,0.00,,,0.01,,2013-08-09 15:33:00,
2013-08-09 10:44:00,74.0,68.0,30.11,NE,53,4.0,7.0,83,0.00,,,0.01,,2013-08-09 15:44:00,
2013-08-09 10:53:00,74.0,68.0,30.11,ENE,67,3.0,8.0,83,0.00,,,0.01,,2013-08-09 15:53:00,
2013-08-09 11:01:00,74.0,68.0,30.11,NE,35,3.0,6.0,81,0.00,,,0.01,,2013-08-09 16:01:00,
2013-08-09 11:11:00,74.0,68.0,30.11,NE,39,4.0,8.0,82,0.00,,,0.01,,2013-08-09 16:11:00,
2013-08-09 11:22:00,74.0,68.0,30.11,NNE,29,3.0,7.0,82,0.00,,,0.01,,2013-08-09 16:22:00,
2013-08-09 11:32:00,74.0,68.0,30.11,ENE,67,3.0,8.0,83,0.00,,,0.01,,2013-08-09 16:32:00,
2013-08-09 11:43:00,74.0,68.0,30.12,ENE,57,4.0,7.0,82,0.00,,,0.01,,2013-08-09 16:43:00,
2013-08-09 11:53:00,74.0,68.0,30.11,NE,50,4.0,6.0,82,0.00,,,0.01,,2013-08-09 16:53:00,
2013-08-09 12:02:00,75.0,69.0,30.11,East,94,3.0,6.0,81,0.00,,,0.01,,2013-08-09 17:02:00,
2013-08-09 12:11:00,75.0,68.0,30.11,ENE,74,3.0,6.0,79,0.00,,,0.01,,2013-08-09 17:11:00,
2013-08-09 12:22:00,75.0,68.0,30.11,East,82,2.0,5.0,78,0.00,,,0.01,,2013-08-09 17:22:00,
2013-08-09 12:33:00,76.0,68.0,30.11,ENE,72,2.0,4.0,77,0.00,,,0.01,,2013-08-09 17:33:00,
2013-08-09 12:43:00,76.0,67.0,30.11,ESE,103,2.0,5.0,73,0.00,,,0.01,,2013-08-09 17:43:00,
2013-08-09 12:52:00,77.0,67.0,30.11,ENE,62,3.0,5.0,72,0.00,,,0.01,,2013-08-09 17:52:00,
2013-08-09 13:01:00,77.0,67.0,30.11,ENE,76,2.0,6.0,71,0.00,,,0.01,,2013-08-09 18:01:00,
2013-08-09 13:11:00,78.0,68.0,30.11,NE,43,1.0,6.0,72,0.00,,,0.01,,2013-08-09 18:11:00,
2013-08-09 13:22:00,78.0,67.0,30.11,NE,49,3.0,5.0,68,0.00,,,0.00,,2013-08-09 18:22:00,
2013-08-09 13:32:00,78.0,67.0,30.11,ENE,66,2.0,6.0,68,0.00,,,0.00,,2013-08-09 18:32:00,
2013-08-09 13:43:00,77.0,66.0,30.11,NE,50,1.0,5.0,69,0.00,,,0.00,,2013-08-09 18:43:00,
2013-08-09 13:52:00,78.0,67.0,30.11,ENE,57,1.0,4.0,69,0.00,,,0.00,,2013-08-09 18:52:00,
2013-08-09 14:02:00,78.0,67.0,30.11,East,94,1.0,5.0,68,0.00,,,0.00,,2013-08-09 19:02:00,
2013-08-09 14:11:00,78.0,67.0,30.11,NE,46,1.0,3.0,68,0.00,,,0.00,,2013-08-09 19:11:00,
2013-08-09 14:22:00,78.0,67.0,30.11,ENE,73,0.0,3.0,69,0.00,,,0.00,,2013-08-09 19:22:00,
2013-08-09 14:32:00,78.0,67.0,30.11,East,80,0.0,0.0,69,0.00,,,0.00,,2013-08-09 19:32:00,
2013-08-09 14:43:00,78.0,67.0,30.11,ENE,71,0.0,2.0,70,0.00,,,0.00,,2013-08-09 19:43:00,
2013-08-09 14:52:00,78.0,67.0,30.11,ENE,71,0.0,0.0,68,0.00,,,0.00,,2013-08-09 19:52:00,
2013-08-09 15:02:00,78.0,68.0,30.11,ENE,71,0.0,0.0,71,0.00,,,0.00,,2013-08-09 20:02:00,
2013-08-09 15:11:00,78.0,68.0,30.11,ENE,72,0.0,0.0,71,0.00,,,0.00,,2013-08-09 20:11:00,
2013-08-09 15:22:00,78.0,67.0,30.11,East,82,0.0,0.0,70,0.00,,,0.00,,2013-08-09 20:22:00,
2013-08-09 15:32:00,78.0,68.0,30.11,ENE,74,0.0,0.0,71,0.00,,,0.00,,2013-08-09 20:32:00,
2013-08-09 15:43:00,78.0,68.0,30.11,ENE,74,0.0,0.0,71,0.00,,,0.00,,2013-08-09 20:43:00,
2013-08-09 15:52:00,78.0,67.0,30.11,ENE,74,0.0,0.0,70,0.00,,,0.00,,2013-08-09 20:52:00,
2013-08-09 16:01:00,78.0,67.0,30.11,ENE,59,0.0,2.0,70,0.00,,,0.00,,2013-08-09 21:01:00,
2013-08-09 16:12:00,78.0,68.0,30.11,East,91,0.0,0.0,71,0.00,,,0.00,,2013-08-09 21:12:00,
2013-08-09 16:22:00,79.0,67.0,30.11,North,355,0.0,3.0,66,0.00,,,0.00,,2013-08-09 21:22:00,
2013-08-09 16:33:00,80.0,67.0,30.10,ENE,59,0.0,3.0,64,0.00,,,0.00,,2013-08-09 21:33:00,
2013-08-09 16:43:00,80.0,68.0,30.11,SE,130,0.0,2.0,68,0.00,,,0.00,,2013-08-09 21:43:00,
2013-08-09 16:52:00,79.0,67.0,30.10,ESE,111,0.0,1.0,66,0.00,,,0.00,,2013-08-09 21:52:00,
2013-08-09 17:01:00,79.0,66.0,30.11,East,87,1.0,3.0,64,0.00,,,0.00,,2013-08-09 22:01:00,
2013-08-09 17:11:00,79.0,68.0,30.11,NE,55,0.0,1.0,68,0.00,,,0.00,,2013-08-09 22:11:00,
2013-08-09 17:22:00,80.0,66.0,30.11,East,86,1.0,5.0,63,0.00,,,0.00,,2013-08-09 22:22:00,
2013-08-09 17:32:00,80.0,67.0,30.11,East,83,0.0,4.0,64,0.00,,,0.00,,2013-08-09 22:32:00,
2013-08-09 17:42:00,81.0,67.0,30.10,NE,38,0.0,2.0,63,0.00,,,0.00,,2013-08-09 22:42:00,
2013-08-09 17:52:00,81.0,67.0,30.10,NNW,345,0.0,3.0,62,0.00,,,0.00,,2013-08-09 22:52:00,
2013-08-09 18:01:00,81.0,67.0,30.10,SSE,159,0.0,0.0,63,0.00,,,0.00,,2013-08-09 23:01:00,
2013-08-09 18:11:00,81.0,67.0,30.09,East,88,1.0,4.0,63,0.00,,,0.00,,2013-08-09 23:11:00,
2013-08-09 18:21:00,81.0,68.0,30.09,SSE,155,0.0,2.0,64,0.00,,,0.00,,2013-08-09 23:21:00,
2013-08-09 18:32:00,80.0,67.0,30.09,East,87,0.0,4.0,65,0.00,,,0.00,,2013-08-09 23:32:00,
2013-08-09 18:43:00,80.0,67.0,30.09,SE,140,0.0,0.0,65,0.00,,,0.00,,2013-08-09 23:43:00,
2013-08-09 18:52:00,81.0,68.0,30.09,ESE,120,0.0,0.0,64,0.00,,,0.00,,2013-08-09 23:52:00,
2013-08-09 19:01:00,80.0,67.0,30.09,ESE,120,0.0,0.0,64,0.00,,,0.00,,2013-08-10 00:01:00,
2013-08-09 19:11:00,80.0,67.0,30.09,ESE,120,0.0,0.0,65,0.00,,,0.00,,2013-08-10 00:11:00,
2013-08-09 19:22:00,80.0,66.0,30.09,ESE,120,0.0,0.0,63,0.00,,,0.00,,2013-08-10 00:22:00,
2013-08-09 19:33:00,81.0,69.0,30.09,ESE,120,0.0,0.0,67,0.00,,,0.00,,2013-08-10 00:33:00,
2013-08-09 19:43:00,80.0,68.0,30.09,East,92,0.0,0.0,67,0.00,,,0.00,,2013-08-10 00:43:00,
2013-08-09 19:52:00,80.0,68.0,30.09,East,92,0.0,0.0,68,0.00,,,0.00,,2013-08-10 00:52:00,
2013-08-09 20:01:00,80.0,70.0,30.09,East,92,0.0,0.0,71,0.00,,,0.00,,2013-08-10 01:01:00,
2013-08-09 20:11:00,79.0,68.0,30.09,East,92,0.0,0.0,70,0.00,,,0.00,,2013-08-10 01:11:00,
2013-08-09 20:21:00,79.0,68.0,30.10,East,92,0.0,0.0,68,0.00,,,0.00,,2013-08-10 01:21:00,
2013-08-09 20:32:00,78.0,67.0,30.10,East,92,0.0,0.0,69,0.00,,,0.00,,2013-08-10 01:32:00,
2013-08-09 20:42:00,75.0,67.0,30.10,East,92,0.0,0.0,76,0.00,,,0.00,,2013-08-10 01:42:00,
2013-08-09 20:52:00,75.0,67.0,30.10,East,92,0.0,0.0,76,0.00,,,0.00,,2013-08-10 01:52:00,
2013-08-09 21:03:00,74.0,66.0,30.11,East,92,0.0,0.0,77,0.00,,,0.00,,2013-08-10 02:03:00,
2013-08-09 21:11:00,74.0,66.0,30.11,East,92,0.0,0.0,77,0.00,,,0.00,,2013-08-10 02:11:00,
2013-08-09 21:32:00,74.0,67.0,30.11,East,92,0.0,0.0,80,0.00,,,0.00,,2013-08-10 02:32:00,
2013-08-09 21:42:00,73.0,67.0,30.11,East,92,0.0,0.0,82,0.00,,,0.00,,2013-08-10 02:42:00,
2013-08-09 21:52:00,69.0,66.0,30.14,East,92,0.0,0.0,90,0.00,,,0.00,,2013-08-10 02:52:00,
2013-08-09 22:01:00,69.0,66.0,30.14,East,92,0.0,0.0,89,0.00,,,0.00,,2013-08-10 03:01:00,
2013-08-09 22:11:00,69.0,66.0,30.14,East,92,0.0,0.0,89,0.00,,,0.00,,2013-08-10 03:11:00,
2013-08-09 22:21:00,68.0,65.0,30.15,East,92,0.0,0.0,90,0.00,,,0.00,,2013-08-10 03:21:00,
2013-08-09 22:32:00,68.0,65.0,30.15,East,92,0.0,0.0,90,0.00,,,0.00,,2013-08-10 03:32:00,
2013-08-09 22:42:00,68.0,65.0,30.15,East,92,0.0,0.0,90,0.00,,,0.00,,2013-08-10 03:42:00,
2013-08-09 22:51:00,66.0,64.0,30.16,East,98,0.0,0.0,93,0.00,,,0.00,,2013-08-10 03:51:00,
2013-08-09 23:01:00,65.0,63.0,30.16,SE,142,0.0,0.0,94,0.00,,,0.00,,2013-08-10 04:01:00,
2013-08-09 23:12:00,65.0,63.0,30.16,SE,142,0.0,0.0,94,0.00,,,0.00,,2013-08-10 04:12:00,
2013-08-09 23:22:00,64.0,63.0,30.16,South,173,0.0,0.0,95,0.00,,,0.00,,2013-08-10 04:22:00,
2013-08-09 23:32:00,64.0,63.0,30.16,SW,220,0.0,1.0,95,0.00,,,0.00,,2013-08-10 04:32:00,
2013-08-09 23:43:00,64.0,63.0,30.17,SW,220,0.0,0.0,96,0.00,,,0.00,,2013-08-10 04:43:00,
2013-08-09 23:53:00,64.0,63.0,30.17,SW,220,0.0,0.0,95,0.00,,,0.00,,2013-08-10 04:53:00,